Vorticity
3 3 2 3 2 3 3 3 3 4 5 5 5 5 5 4 5 4 4 4 4 4 4 5 6 7 7 8 8 6 3 3 12 13 9 7 5 5 6 4 7 8 0 6
4 4 5 6 8 9 10 9 9 9 6 5 4 5 4 5 6 7 7 7 7 7 7 5 8 9 9 5 2 5 5 6 3 5 15 12 6 7 8 6 7 4 7 5
6 6 8 8 9 8 6 5 5 6 6 6 7 6 6 10 8 8 8 8 9 8 8 8 7 7 7 8 9 10 11 8 6 3 6 12 17 9 6 7 7 8 5 7
7 7 8 7 6 4 4 5 6 7 8 7 9 7 6 6 8 8 10 9 10 9 9 10 11 11 12 9 10 10 13 11 9 8 5 4 5 16 11 8 5 9 7 6
8 7 5 6 6 7 6 9 10 9 8 10 7 10 -5 9 6 10 7 8 8 9 10 11 11 11 9 8 6 16 16 15 9 10 12 11 12 12 14 10 10 5 8 8
7 6 6 6 5 5 7 7 6 7 8 10 5 13 -1 5 10 6 9 8 9 10 9 11 12 13 12 12 14 14 13 13 15 15 14 16 17 16 15 16 9 12 7 9
6 6 5 6 5 7 5 7 4 5 7 6 7 9 2 11 5 13 11 10 11 12 12 12 12 9 10 12 12 13 14 15 13 14 12 11 12 14 18 16 15 10 12 11
5 7 6 4 5 7 6 9 5 5 8 6 8 1 9 6 15 9 11 12 12 13 14 12 10 10 10 11 13 10 11 15 21 21 33 29 25 20 18 18 15 16 14 14
6 6 5 5 7 7 6 11 3 5 8 12 14 10 8 15 18 10 10 13 13 12 10 10 11 10 12 11 13 14 12 13 10 13 33 31 27 25 25 39 32 18 16 14
4 7 5 7 9 8 9 6 3 9 11 10 11 9 -1 13 8 9 13 14 11 12 12 11 9 11 9 10 13 12 11 11 11 10 25 24 16 13 14 17 26 35 24 24
6 6 3 8 7 9 12 2 7 12 12 10 10 11 9 9 9 10 12 10 12 11 11 8 8 8 8 9 9 10 9 10 10 12 22 22 15 11 7 7 10 10 27 24
4 6 3 9 6 15 2 6 12 13 10 10 10 10 10 8 10 8 10 11 11 11 9 10 8 11 8 8 9 8 8 8 11 13 14 18 22 16 16 16 6 6 11 10
3 5 2 9 11 4 2 14 15 11 10 11 11 5 7 9 8 11 17 17 13 13 13 10 9 9 8 6 8 8 7 8 7 12 14 15 15 14 20 15 14 17 5 7
9 6 0 11 8 9 8 16 12 11 8 12 10 10 6 2 5 4 7 8 10 10 8 8 9 10 9 7 8 7 8 7 7 6 10 13 13 18 13 16 21 12 22 9
8 2 9 10 10 6 15 12 10 10 8 11 7 10 3 7 9 8 8 9 11 13 12 10 10 11 11 10 9 7 8 9 8 7 7 8 13 12 15 13 17 16 24 15
2 4 1 7 15 6 20 12 9 9 11 10 10 8 6 8 10 12 12 9 8 8 5 6 7 9 9 7 8 7 8 8 8 9 7 7 7 13 13 13 13 16 17 19
8 4 -2 21 8 12 15 11 8 10 7 9 8 7 7 8 8 5 4 3 4 5 2 2 3 3 5 8 9 7 7 7 7 8 8 8 8 7 11 12 10 13 11 17
3 -1 17 12 9 14 15 10 11 9 8 8 8 7 7 5 5 2 2 1 2 0 4 5 4 6 9 10 9 8 6 8 7 9 8 9 9 9 8 9 10 9 12 12
3 5 17 11 13 13 9 11 10 9 11 7 11 7 6 8 4 4 4 4 3 4 3 3 3 3 3 8 13 10 12 9 8 7 9 10 9 11 10 9 8 10 9 10
3 14 13 10 10 11 9 8 13 10 7 2 11 10 7 9 6 3 3 4 7 5 5 5 5 6 5 5 7 10 11 10 11 7 13 10 10 11 12 11 9 7 11 12
5 17 12 11 11 9 9 10 4 7 9 9 5 6 7 6 7 5 3 3 4 5 7 7 6 7 12 11 8 8 10 11 6 10 14 14 11 11 11 12 11 11 7 9
17 13 9 12 11 7 5 12 5 11 10 7 7 7 5 4 4 3 3 3 3 5 7 7 7 11 12 14 12 5 9 15 8 16 16 14 12 11 12 13 13 13 11 9
14 12 13 8 10 8 8 9 7 6 8 8 7 7 7 6 5 2 4 3 4 6 6 9 10 12 16 12 13 8 8 13 16 20 8 12 13 13 13 11 14 15 10 7
11 11 11 12 7 7 8 8 7 7 8 5 6 7 4 4 4 2 1 1 3 4 7 6 11 13 21 13 9 11 8 20 15 19 12 12 15 16 14 12 12 13 11 9
10 9 11 12 7 10 7 7 7 7 8 5 8 5 4 4 2 2 3 6 6 7 9 17 14 17 17 15 9 10 23 23 23 7 13 17 18 15 14 15 16 16 13 12
9 10 9 8 9 7 6 6 7 9 5 8 7 6 4 2 2 4 6 5 9 8 16 9 13 15 16 13 11 17 53 -5 4 21 19 16 3 11 10 7 14 6 7 8
Height
5850 5851 5852 5853 5853 5853 5853 5853 5853 5853 5852 5852 5850 5851 5851 5849 5849 5847 5847 5846 5845 5843 5842 5841 5840 5839 5838 5837 5836 5835 5836 5836 5837 5836 5839 5841 5841 5841 5840 5842 5843 5845 5844 5844
5849 5850 5850 5850 5851 5851 5851 5850 5851 5851 5849 5848 5845 5845 5844 5844 5843 5842 5840 5839 5838 5837 5835 5833 5831 5830 5829 5828 5826 5824 5823 5824 5824 5825 5827 5827 5828 5829 5828 5830 5830 5831 5833 5834
5848 5849 5849 5849 5849 5848 5848 5847 5847 5847 5846 5844 5842 5837 5838 5839 5836 5834 5833 5830 5828 5826 5825 5823 5820 5819 5818 5818 5815 5813 5811 5810 5809 5811 5813 5814 5814 5814 5814 5815 5817 5816 5819 5821
5846 5846 5846 5846 5846 5846 5845 5845 5844 5843 5842 5840 5840 5834 5825 5827 5827 5826 5824 5822 5819 5817 5815 5813 5810 5807 5805 5805 5801 5799 5798 5797 5795 5795 5796 5799 5800 5800 5799 5798 5800 5800 5802 5807
5844 5843 5843 5843 5843 5843 5844 5842 5840 5839 5837 5835 5833 5834 5818 5818 5819 5813 5812 5811 5808 5805 5803 5801 5798 5794 5792 5792 5790 5787 5784 5782 5780 5778 5778 5779 5782 5783 5782 5782 5781 5784 5783 5788
5842 5842 5841 5840 5840 5839 5837 5836 5835 5833 5832 5830 5827 5828 5816 5815 5815 5810 5804 5802 5799 5796 5793 5790 5787 5784 5781 5779 5776 5772 5769 5766 5764 5761 5760 5760 5761 5763 5764 5764 5764 5765 5767 5765
5839 5838 5837 5836 5835 5833 5832 5830 5828 5827 5825 5823 5821 5820 5814 5813 5808 5803 5800 5795 5791 5787 5783 5780 5777 5773 5769 5766 5763 5758 5756 5755 5753 5749 5745 5740 5739 5742 5744 5745 5746 5747 5749 5747
5835 5835 5833 5831 5830 5828 5826 5825 5823 5820 5818 5815 5811 5808 5807 5805 5802 5797 5792 5787 5783 5779 5776 5772 5768 5763 5759 5755 5752 5747 5744 5742 5738 5732 5727 5724 5721 5720 5722 5726 5726 5727 5730 5731
5829 5829 5828 5827 5825 5824 5821 5819 5817 5815 5812 5810 5809 5801 5796 5798 5795 5790 5785 5781 5777 5773 5769 5765 5761 5757 5752 5748 5743 5739 5734 5729 5723 5719 5712 5709 5706 5706 5705 5705 5709 5709 5709 5712
5824 5823 5822 5821 5820 5818 5816 5814 5812 5808 5805 5801 5801 5798 5790 5789 5786 5782 5778 5774 5769 5765 5762 5758 5755 5750 5745 5741 5737 5732 5726 5721 5716 5709 5703 5700 5698 5696 5695 5695 5695 5696 5694 5694
5817 5818 5817 5816 5814 5812 5810 5808 5805 5802 5799 5795 5792 5790 5785 5783 5779 5774 5770 5766 5762 5758 5754 5751 5747 5744 5739 5735 5730 5725 5720 5715 5709 5703 5696 5692 5690 5688 5686 5685 5685 5685 5684 5682
5812 5811 5810 5810 5807 5804 5803 5800 5797 5794 5793 5789 5786 5786 5780 5779 5774 5769 5765 5760 5756 5752 5748 5744 5741 5737 5733 5728 5723 5718 5713 5708 5702 5696 5690 5685 5681 5678 5676 5675 5673 5674 5674 5673
5805 5804 5803 5802 5800 5797 5795 5793 5789 5787 5785 5783 5779 5775 5773 5770 5767 5763 5759 5755 5750 5746 5742 5738 5735 5731 5726 5721 5716 5711 5706 5701 5695 5689 5684 5679 5674 5669 5666 5664 5662 5661 5662 5662
5798 5797 5796 5794 5792 5791 5789 5785 5782 5780 5778 5777 5773 5770 5764 5762 5758 5754 5751 5747 5743 5740 5735 5731 5727 5723 5719 5715 5710 5704 5698 5692 5687 5682 5676 5671 5667 5663 5658 5654 5651 5649 5648 5649
5792 5791 5789 5787 5784 5782 5781 5777 5775 5773 5770 5770 5766 5763 5759 5757 5753 5749 5745 5741 5737 5733 5729 5724 5720 5716 5712 5707 5703 5698 5693 5686 5680 5674 5669 5664 5659 5655 5650 5646 5642 5638 5635 5634
5785 5784 5782 5779 5777 5774 5772 5768 5767 5768 5765 5763 5760 5757 5753 5751 5748 5744 5740 5736 5731 5727 5723 5718 5714 5709 5704 5700 5695 5689 5684 5678 5673 5667 5661 5656 5651 5646 5642 5638 5633 5629 5625 5621
5778 5776 5774 5771 5770 5767 5766 5763 5760 5758 5756 5754 5753 5750 5746 5744 5741 5738 5733 5729 5725 5721 5716 5712 5707 5702 5697 5692 5687 5682 5676 5670 5664 5658 5652 5646 5641 5636 5631 5628 5624 5619 5615 5612
5770 5769 5766 5764 5762 5760 5759 5756 5753 5752 5749 5747 5745 5742 5738 5736 5733 5730 5726 5723 5718 5714 5709 5704 5699 5694 5688 5683 5677 5671 5665 5659 5654 5648 5643 5637 5632 5626 5620 5617 5613 5609 5605 5602
5762 5762 5758 5756 5754 5753 5750 5749 5747 5745 5743 5739 5738 5734 5731 5729 5726 5723 5718 5714 5710 5705 5700 5694 5689 5683 5677 5671 5665 5659 5653 5645 5639 5635 5630 5624 5619 5616 5610 5605 5601 5599 5596 5591
5754 5752 5751 5748 5746 5745 5743 5742 5739 5736 5734 5733 5730 5727 5724 5721 5718 5714 5709 5705 5700 5695 5689 5684 5677 5670 5663 5657 5651 5644 5638 5633 5627 5620 5617 5610 5606 5602 5599 5595 5591 5586 5584 5582
5746 5743 5741 5739 5738 5739 5734 5731 5731 5728 5729 5723 5720 5718 5715 5712 5708 5705 5700 5696 5690 5684 5678 5672 5666 5659 5652 5644 5636 5630 5623 5617 5610 5605 5603 5598 5593 5589 5585 5583 5579 5576 5573 5570
5738 5735 5734 5731 5729 5728 5728 5724 5724 5719 5716 5714 5711 5708 5705 5701 5697 5694 5689 5684 5678 5672 5666 5659 5652 5645 5638 5630 5620 5614 5609 5602 5594 5589 5586 5583 5579 5576 5572 5570 5567 5564 5562 5559
5730 5728 5725 5725 5722 5719 5717 5716 5713 5710 5709 5706 5702 5698 5695 5691 5686 5682 5677 5672 5666 5659 5652 5644 5636 5629 5622 5614 5607 5597 5594 5587 5581 5576 5571 5568 5565 5561 5558 5556 5554 5552 5549 5547
5718 5716 5717 5715 5713 5710 5708 5705 5703 5701 5697 5695 5691 5687 5683 5679 5675 5670 5664 5658 5651 5643 5636 5627 5620 5613 5605 5597 5589 5580 5577 5570 5566 5562 5557 5554 5551 5548 5545 5543 5541 5539 5537 5535
5708 5706 5707 5706 5702 5704 5699 5696 5694 5690 5688 5684 5681 5676 5672 5667 5661 5656 5650 5642 5635 5627 5619 5610 5603 5596 5589 5582 5574 5565 5559 5554 5549 5547 5543 5540 5538 5536 5533 5531 5529 5527 5524 5522
5700 5698 5698 5695 5696 5695 5690 5687 5682 5681 5677 5673 5669 5665 5659 5653 5648 5641 5634 5626 5618 5610 5602 5593 5585 5577 5571 5565 5557 5549 5543 5537 5537 5534 5530 5528 5526 5525 5522 5520 5519 5516 5513 5510